Location: Riverton
(43.0250°N, 108.3790°W)
Time: 08:31:25
(UTC-06:00)

Amateur Radio Satellites - All Passes

Search period start: 19 April 2014 08:01
Search period end: 20 April 2014 08:01
Location: Riverton, 43.0250°N, 108.3790°W

Satellite Date Start Highest point End Downlink Frequencies (MHz)
Time Altitude Azimuth
JAS-2 19 Apr 08:14:13 08:19:32 60° 102° (ESE) 08:25:21 435.800 - 435.900 CW/SSB, 435.910 FM
PCSat 19 Apr 08:23:26 08:26:23 15° 36° (NE) 08:29:20 145.825 MHz
RS-15 19 Apr 08:27:56 08:39:14 74° 307° (NW) 08:50:14 29.354 - 29.394 USB, Beacon 29.352 USB
HO-68 19 Apr 08:43:18 08:44:43 11° 85° (E) 08:46:09 435.675 MHz FM
SO-67 19 Apr 09:17:30 09:20:30 27° 289° (WNW) 09:23:29 435.3500 MHz FM
Sapphire 19 Apr 09:20:48 09:25:35 31° 48° (NE) 09:30:21 437.095 MHz 1200 baud AX-25 AFSK
KITSAT 1 19 Apr 09:51:49 09:57:14 19° 24° (NNE) 10:02:37 435.175 FM
JAS-2 19 Apr 10:00:33 10:04:18 20° 297° (WNW) 10:08:14 435.800 - 435.900 CW/SSB, 435.910 FM
PCSat 19 Apr 10:05:26 10:10:51 68° 57° (ENE) 10:16:14 145.825 MHz
HO-68 19 Apr 10:26:31 10:33:42 67° 104° (ESE) 10:40:50 435.675 MHz FM
Saudisat 1A 19 Apr 10:33:16 10:35:37 14° 109° (ESE) 10:37:59 436.775 MHz
FUNcube-1 19 Apr 10:42:23 10:44:35 14° 91° (E) 10:46:49 145.950 - 145.970 MHz USB
RS-15 19 Apr 10:44:32 10:53:49 29° 336° (NNW) 11:03:02 29.354 - 29.394 USB, Beacon 29.352 USB
Oscar 11 19 Apr 10:51:22 10:55:39 54° 100° (E) 10:59:55 145.825 FM, Beacon 2401.500 USB
Sapphire 19 Apr 11:04:02 11:09:10 44° 247° (WSW) 11:14:16 437.095 MHz 1200 baud AX-25 AFSK
KITSAT 1 19 Apr 11:46:50 11:54:45 53° 50° (NE) 12:02:36 435.175 FM
PCSat 19 Apr 11:50:11 11:53:41 18° 255° (WSW) 11:57:11 145.825 MHz
Saudisat 1A 19 Apr 12:10:14 12:14:41 67° 306° (NW) 12:19:09 436.775 MHz
HO-68 19 Apr 12:15:07 12:20:50 27° 302° (WNW) 12:26:33 435.675 MHz FM
FUNcube-1 19 Apr 12:17:11 12:21:19 54° 287° (WNW) 12:25:33 145.950 - 145.970 MHz USB
Oscar 19 19 Apr 12:19:00 12:20:23 11° 56° (NE) 12:21:46 437.125 CW, 437.150 USB
Oscar 16 19 Apr 12:25:55 12:28:30 14° 58° (ENE) 12:31:05 437.025 USB, Beacon 2401.1428
Oscar 11 19 Apr 12:28:49 12:31:25 16° 297° (WNW) 12:34:00 145.825 FM, Beacon 2401.500 USB
Uribyol 2 19 Apr 13:00:34 13:03:33 16° 59° (ENE) 13:06:32 436.500 FM
RS-15 19 Apr 13:02:32 13:11:00 24° 12° (NNE) 13:19:28 29.354 - 29.394 USB, Beacon 29.352 USB
Oscar 10/S400 19 Apr 13:07:35 14:39:29 32° 257° (WSW) 18:23:59 145.825 - 145.975 CW/USB, Beacon 145.810 USB
AO-27 19 Apr 13:38:49 13:43:23 32° 66° (ENE) 13:47:57 436.795 MHz FM
KITSAT 1 19 Apr 13:42:36 13:49:56 39° 251° (WSW) 13:57:13 435.175 FM
ITAMSAT 1 19 Apr 13:49:17 13:54:03 39° 68° (ENE) 13:58:50 435.822 SSB
Saudisat 1A 19 Apr 13:53:07 13:55:09 13° 326° (NW) 13:57:10 436.775 MHz
Oscar 19 19 Apr 13:53:43 13:58:50 77° 74° (ENE) 14:04:01 437.125 CW, 437.150 USB
AO-Echo 19 Apr 13:56:28 14:01:13 36° 68° (ENE) 14:05:52 ?
Oscar 16 19 Apr 14:02:00 14:07:08 84° 256° (WSW) 14:12:20 437.025 USB, Beacon 2401.1428
TMSAT-1 19 Apr 14:20:28 14:24:00 19° 61° (ENE) 14:27:33 436.925 FM
Uribyol 2 19 Apr 14:37:15 14:42:25 75° 257° (WSW) 14:47:36 436.500 FM
SO-50 19 Apr 14:51:16 14:52:50 12° 108° (ESE) 14:54:25 436.795 FM
AO-7 19 Apr 14:56:08 15:02:11 23° 51° (NE) 15:08:14 29.400 - 29.500 MHz
OPAL 19 Apr 15:05:59 15:09:53 21° 95° (E) 15:13:46 ?
Gurwin Techsat 1B 19 Apr 15:09:57 15:15:12 67° 73° (ENE) 15:20:29 435.225 FM
JAS-1B 19 Apr 15:12:12 15:19:11 36° 66° (ENE) 15:25:11 435.800 - 435.900 CW/SSB
RS-15 19 Apr 15:16:12 15:26:48 51° 43° (NE) 15:37:32 29.354 - 29.394 USB, Beacon 29.352 USB
AO-27 19 Apr 15:18:11 15:22:51 33° 263° (W) 15:27:32 436.795 MHz FM
ISS 19 Apr 15:20:49 15:23:36 25° 136° (SE) 15:26:25 145.800 FM
ITAMSAT 1 19 Apr 15:29:16 15:33:38 27° 265° (W) 15:38:01 435.822 SSB
AO-Echo 19 Apr 15:35:27 15:40:00 30° 264° (W) 15:44:29 ?
Oscar 19 19 Apr 15:36:25 15:38:47 13° 271° (W) 15:41:10 437.125 CW, 437.150 USB
Uosat F 19 Apr 15:53:25 15:58:12 46° 70° (ENE) 16:02:59 435.120 FM
TMSAT-1 19 Apr 15:58:10 16:03:25 64° 258° (WSW) 16:08:41 436.925 FM
SO-50 19 Apr 16:28:15 16:32:44 79° 305° (NW) 16:37:17 436.795 FM
OPAL 19 Apr 16:43:59 16:49:03 52° 292° (WNW) 16:54:05 ?
AO-7 19 Apr 16:45:40 16:53:58 89° 251° (WSW) 17:02:18 29.400 - 29.500 MHz
Gurwin Techsat 1B 19 Apr 16:52:27 16:55:39 16° 270° (W) 16:58:52 435.225 FM
ISS 19 Apr 16:56:57 17:00:12 47° 333° (NNW) 17:03:28 145.800 FM
JAS-1B 19 Apr 17:01:54 17:09:41 47° 260° (W) 17:16:16 435.800 - 435.900 CW/SSB
UOSAT-12 19 Apr 17:12:07 17:15:10 18° 110° (ESE) 17:18:15 437.025 FM, 437.400 FM
RS-15 19 Apr 17:28:48 17:39:16 54° 247° (WSW) 17:50:02 29.354 - 29.394 USB, Beacon 29.352 USB
Uosat F 19 Apr 17:33:22 17:37:12 22° 267° (W) 17:41:03 435.120 FM
SO-50 19 Apr 18:11:36 18:14:04 14° 325° (NW) 18:16:33 436.795 FM
JAS-2 19 Apr 18:28:40 18:33:25 28° 66° (ENE) 18:37:51 435.800 - 435.900 CW/SSB, 435.910 FM
Hamsat 19 Apr 18:34:57 18:39:08 79° 76° (ENE) 18:43:24 145.90 MHz
ISS 19 Apr 18:35:00 18:37:32 20° 353° (N) 18:40:04 145.800 FM
AO-7 19 Apr 18:42:26 18:47:48 19° 270° (W) 18:53:12 29.400 - 29.500 MHz
UOSAT-12 19 Apr 18:50:22 18:54:52 57° 308° (NW) 18:59:29 437.025 FM, 437.400 FM
Saudisat 1A 19 Apr 18:57:32 19:00:45 19° 40° (NE) 19:03:57 436.775 MHz
HO-68 19 Apr 19:14:14 19:16:30 12° 46° (NE) 19:18:46 435.675 MHz FM
STRAND 1 19 Apr 19:22:26 19:27:04 34° 97° (E) 19:31:39 ?
SO-67 19 Apr 19:51:27 19:54:56 70° 259° (WSW) 19:58:26 435.3500 MHz FM
ISS 19 Apr 20:12:22 20:15:06 22° 13° (NNE) 20:17:50 145.800 FM
JAS-2 19 Apr 20:12:55 20:18:24 41° 261° (W) 20:23:27 435.800 - 435.900 CW/SSB, 435.910 FM
UOSAT-12 19 Apr 20:34:14 20:36:04 12° 329° (NNW) 20:37:54 437.025 FM, 437.400 FM
Saudisat 1A 19 Apr 20:36:24 20:40:47 64° 239° (WSW) 20:45:06 436.775 MHz
HO-68 19 Apr 20:55:46 21:02:40 55° 67° (ENE) 21:09:36 435.675 MHz FM
STRAND 1 19 Apr 21:01:45 21:06:10 31° 294° (WNW) 21:10:35 ?
FUNcube-1 19 Apr 21:40:54 21:42:53 13° 63° (ENE) 21:44:53 145.950 - 145.970 MHz USB
Oscar 11 19 Apr 21:47:19 21:51:27 47° 72° (ENE) 21:55:37 145.825 FM, Beacon 2401.500 USB
ISS 19 Apr 21:48:53 21:52:16 78° 32° (NNE) 21:55:37 145.800 FM
MaSat-1 19 Apr 21:50:50 21:53:37 41° 114° (ESE) 21:56:07 437.345 MHz
HO-68 19 Apr 22:44:36 22:50:40 30° 265° (W) 22:56:48 435.675 MHz FM
FUNcube-1 19 Apr 23:14:42 23:18:51 59° 259° (W) 23:22:59 145.950 - 145.970 MHz USB
SO-50 19 Apr 23:19:18 23:22:41 20° 40° (NE) 23:26:05 436.795 FM
Oscar 11 19 Apr 23:25:15 23:27:55 16° 269° (W) 23:30:35 145.825 FM, Beacon 2401.500 USB
ISS 19 Apr 23:26:45 23:28:36 14° 229° (SW) 23:30:26 145.800 FM
Sapphire 20 Apr 00:04:50 00:08:45 21° 106° (ESE) 00:12:41 437.095 MHz 1200 baud AX-25 AFSK
PCSat 20 Apr 00:48:03 00:53:16 52° 114° (ESE) 00:58:31 145.825 MHz
SO-50 20 Apr 00:59:05 01:03:43 70° 239° (WSW) 01:08:24 436.795 FM
UOSAT-12 20 Apr 01:39:28 01:43:23 25° 43° (NE) 01:47:16 437.025 FM, 437.400 FM
Sapphire 20 Apr 01:46:22 01:51:42 59° 304° (NW) 01:57:05 437.095 MHz 1200 baud AX-25 AFSK
ITAMSAT 1 20 Apr 02:03:09 02:05:12 12° 89° (E) 02:07:15 435.822 SSB
Oscar 19 20 Apr 02:04:59 02:09:17 26° 94° (E) 02:13:33 437.125 CW, 437.150 USB
Oscar 16 20 Apr 02:13:07 02:17:46 32° 96° (E) 02:22:24 437.025 USB, Beacon 2401.1428
KITSAT 1 20 Apr 02:17:10 02:23:53 30° 106° (ESE) 02:30:38 435.175 FM
OPAL 20 Apr 02:21:31 02:26:12 41° 66° (ENE) 02:30:58 ?
PCSat 20 Apr 02:32:23 02:36:58 27° 314° (NW) 02:41:34 145.825 MHz
Uribyol 2 20 Apr 02:49:17 02:54:03 36° 97° (E) 02:58:48 436.500 FM
UOSAT-12 20 Apr 03:19:13 03:23:48 51° 241° (WSW) 03:28:20 437.025 FM, 437.400 FM
Gurwin Techsat 1B 20 Apr 03:25:51 03:30:10 25° 94° (E) 03:34:28 435.225 FM
AO-27 20 Apr 03:29:34 03:34:46 82° 104° (ESE) 03:39:57 436.795 MHz FM
Sapphire 20 Apr 03:33:49 03:36:19 13° 326° (NW) 03:38:50 437.095 MHz 1200 baud AX-25 AFSK
ITAMSAT 1 20 Apr 03:40:08 03:45:20 82° 286° (WNW) 03:50:30 435.822 SSB
AO-Echo 20 Apr 03:41:10 03:46:00 86° 104° (ESE) 03:50:42 ?
Oscar 19 20 Apr 03:43:53 03:48:46 41° 291° (WNW) 03:53:36 437.125 CW, 437.150 USB
Oscar 16 20 Apr 03:52:28 03:57:05 33° 293° (WNW) 04:01:41 437.025 USB, Beacon 2401.1428
OPAL 20 Apr 04:01:05 04:05:13 25° 264° (W) 04:09:25 ?
Uosat F 20 Apr 04:02:06 04:04:17 13° 89° (E) 04:06:27 435.120 FM
KITSAT 1 20 Apr 04:10:39 04:18:42 66° 306° (NW) 04:26:49 435.175 FM
TMSAT-1 20 Apr 04:13:07 04:18:14 48° 99° (E) 04:23:19 436.925 FM
Uribyol 2 20 Apr 04:28:59 04:33:25 30° 294° (WNW) 04:37:51 436.500 FM
JAS-1B 20 Apr 04:45:33 04:50:56 43° 99° (E) 04:56:31 435.800 - 435.900 CW/SSB
AO-7 20 Apr 04:46:50 04:53:50 29° 95° (E) 05:00:47 29.400 - 29.500 MHz
Gurwin Techsat 1B 20 Apr 05:05:18 05:10:19 44° 291° (WNW) 05:15:18 435.225 FM
AO-27 20 Apr 05:10:54 05:13:36 14° 302° (WNW) 05:16:18 436.795 MHz FM
ITAMSAT 1 20 Apr 05:22:10 05:24:00 12° 303° (WNW) 05:25:50 435.822 SSB
AO-Echo 20 Apr 05:22:20 05:24:02 12° 302° (WNW) 05:25:43 ?
Uosat F 20 Apr 05:38:38 05:43:38 76° 286° (WNW) 05:48:37 435.120 FM
RS-15 20 Apr 05:44:03 05:52:16 24° 102° (ESE) 06:00:15 29.354 - 29.394 USB, Beacon 29.352 USB
TMSAT-1 20 Apr 05:53:42 05:57:51 24° 296° (WNW) 06:02:00 436.925 FM
KITSAT 1 20 Apr 06:09:49 06:15:48 22° 331° (NNW) 06:21:48 435.175 FM
MaSat-1 20 Apr 06:13:58 06:15:19 12° 55° (NE) 06:16:46 437.345 MHz
Hamsat 20 Apr 06:21:29 06:23:44 14° 90° (E) 06:25:58 145.90 MHz
JAS-1B 20 Apr 06:36:50 06:41:28 26° 297° (WNW) 06:46:09 435.800 - 435.900 CW/SSB
AO-7 20 Apr 06:38:56 06:47:08 66° 294° (WNW) 06:55:20 29.400 - 29.500 MHz
STRAND 1 20 Apr 06:39:12 06:44:10 54° 71° (ENE) 06:49:10 ?
JAS-2 20 Apr 07:20:08 07:24:15 21° 94° (E) 07:28:38 435.800 - 435.900 CW/SSB, 435.910 FM
Uosat F 20 Apr 07:20:40 07:21:34 10° 304° (NW) 07:22:27 435.120 FM
MaSat-1 20 Apr 07:50:59 07:53:46 35° 246° (WSW) 07:57:02 437.345 MHz
PCSat 20 Apr 07:53:36 07:55:32 12° 32° (NNE) 07:57:28 145.825 MHz
